User: anonymous   Login
Location: Caltech
(34.1382°N, 118.1253°W)
Time: 21:27:22
(UTC-07:00)
Language:

SEDSat Delta rocket - Orbit

View from above orbital plane
View from above orbital plane
View from above satellite
View from above satellite

Ground track
Ground track

The orbit data is extracted from the following two-line orbital elements,

1 25510U 98061C   15088.13785106  .00000923  00000-0  15437-3 0  9997
2 25510 031.4331 110.0881 0330593 091.6039 318.7104 14.36473915860573
Epoch (UTC): 29 March 2015 03:18:30
Eccentricity: 0.0330593
inclination: 31.4331°
perigee height: 534 km
apogee height: 1006 km
right ascension of ascending node: 110.0881°
argument of perigee: 91.6039°
revolutions per day: 14.36473915
mean anomaly at epoch: 318.7104°
orbit number at epoch: 86057

The dashed part of the orbit path shows where the satellite is in the earth's shadow,  

DLR